User: anonymous   Login
Location: Unspecified
(0.0000°N, 0.0000°E)
Time: 16:39:51
(UTC+00:00)
Language:

PAYLOAD F - Orbit

View from above orbital plane
View from above orbital plane
View from above satellite
View from above satellite

Ground track
Ground track

The orbit data is extracted from the following two-line orbital elements,

1 27060U 01058F   17204.94646039 +.00000005 +00000-0 -31879-4 0  9992
2 27060 082.5417 123.2323 0008936 110.7196 249.4847 12.62993404717857
Epoch (UTC): 23 July 2017 22:42:54
Eccentricity: 0.0008936
inclination: 82.5417°
perigee height: 1403 km
apogee height: 1417 km
right ascension of ascending node: 123.2323°
argument of perigee: 110.7196°
revolutions per day: 12.62993404
mean anomaly at epoch: 249.4847°
orbit number at epoch: 71785

The dashed part of the orbit path shows where the satellite is in the earth's shadow,  

DLR